Bryce Canyon, UT

6:16 PM MDT on April 25, 2018 (GMT -0600)
Bryce Canyon

Weather History for KBCE - November, 2013

Change the Weather History Date:

Sunday, November 17, 2013

  Actual Average Record
Temperature  
Mean Temperature 34 °F -  
Max Temperature 50 °F 43 °F 63 °F (2008)
Min Temperature 17 °F 18 °F -12 °F (1964)
Degree Days  
Heating Degree Days 32    
Moisture  
Dew Point 22 °F    
Average Humidity 72    
Maximum Humidity 92    
Minimum Humidity 32    
Precipitation  
Precipitation 0.00 in - - ()
Sea Level Pressure  
Sea Level Pressure 30.00 in    
Wind  
Wind Speed 7 mph (WNW)    
Max Wind Speed 9 mph    
Max Gust Speed 16 mph    
Visibility 10 miles    
Events      
Averages and records for this station are not official NWS values.
T = Trace of Precipitation, MM = Missing Value Source: NWS Daily Summary

Daily Weather History Graph

Daily Weather History Graph

Search for Another Location

Airport or City:

Astronomy

Nov. 17, 2013 Rise Set
Actual Time 7:11 AM MST 5:15 PM MST
Civil Twilight 6:42 AM MST 5:43 PM MST
Nautical Twilight 6:11 AM MST 6:15 PM MST
Astronomical Twilight 5:40 AM MST 6:46 PM MST
Moon 5:35 PM MST (11/17) 7:08 AM MST (11/17)
Length of Visible Light 11h 00m
Length of Day
10h 04m
Full, 100% of the Moon is Illuminated
Nov 17
Full
Nov 25
Last Quarter
Dec 2
New
Dec 9
First Quarter
Dec 17
Full

Hourly Weather History & Observations

Time (MST) Temp. Windchill Dew Point Humidity Pressure Visibility Wind Dir Wind Speed Gust Speed Precip Events Conditions
12:53 AM 27.0 °F 18.7 °F 23.0 °F 85% 29.77 in 10.0 mi NNE 8.1 mph - N/A   Clear
1:53 AM 27.0 °F 18.0 °F 24.1 °F 89% 29.78 in 10.0 mi North 9.2 mph - N/A   Clear
2:53 AM 27.0 °F 18.7 °F 24.1 °F 89% 29.81 in 10.0 mi NW 8.1 mph - N/A   Clear
3:53 AM 25.0 °F 18.1 °F 23.0 °F 92% 29.85 in 10.0 mi WNW 5.8 mph - N/A   Clear
4:53 AM 23.0 °F 14.7 °F 21.0 °F 92% 29.87 in 10.0 mi West 6.9 mph - N/A   Clear
5:53 AM 19.9 °F 12.1 °F 17.1 °F 89% 29.92 in 10.0 mi WNW 5.8 mph - N/A   Clear
6:53 AM 17.1 °F 10.0 °F 15.1 °F 92% 29.97 in 10.0 mi WSW 4.6 mph - N/A   Clear
7:53 AM 24.1 °F 15.2 °F 21.0 °F 88% 29.98 in 10.0 mi WSW 8.1 mph - N/A   Clear
8:53 AM 34.0 °F 28.8 °F 28.9 °F 82% 29.97 in 10.0 mi West 5.8 mph - N/A   Clear
9:53 AM 39.0 °F 34.8 °F 28.0 °F 65% 29.98 in 10.0 mi Variable 5.8 mph - N/A   Clear
10:53 AM 42.1 °F 37.7 °F 25.0 °F 51% 30.00 in 10.0 mi WSW 6.9 mph - N/A   Clear
11:53 AM 45.0 °F 40.1 °F 25.0 °F 46% 29.97 in 10.0 mi WNW 9.2 mph - N/A   Clear
12:53 PM 46.9 °F - 24.1 °F 41% 29.97 in 10.0 mi West 5.8 mph - N/A   Clear
1:53 PM 50.0 °F - 24.1 °F 36% 29.95 in 10.0 mi WNW 8.1 mph 16.1 mph N/A   Clear
2:53 PM 50.0 °F - 24.1 °F 36% 29.96 in 10.0 mi NNW 3.5 mph - N/A   Clear
3:53 PM 48.9 °F - 19.9 °F 32% 30.00 in 10.0 mi WNW 5.8 mph - N/A   Clear
4:53 PM 45.0 °F 40.1 °F 19.9 °F 37% 30.05 in 10.0 mi WNW 9.2 mph - N/A   Clear
5:53 PM 28.0 °F - 18.0 °F 66% 30.17 in 10.0 mi Calm Calm - N/A   Clear
6:53 PM 26.1 °F 19.4 °F 19.0 °F 75% 30.21 in 10.0 mi SSW 5.8 mph - N/A   Clear
7:53 PM 21.9 °F 15.7 °F 18.0 °F 85% 30.21 in 10.0 mi West 4.6 mph - N/A   Clear
8:53 PM 19.9 °F 12.1 °F 18.0 °F 92% 30.18 in 10.0 mi WSW 5.8 mph - N/A   Clear
9:53 PM 23.0 °F 18.4 °F 19.0 °F 85% 30.15 in 10.0 mi West 3.5 mph - N/A   Clear
10:53 PM 21.0 °F 14.6 °F 18.0 °F 88% 30.15 in 10.0 mi Variable 4.6 mph - N/A   Clear
11:53 PM 25.0 °F 18.1 °F 21.0 °F 85% 30.12 in 10.0 mi West 5.8 mph - N/A   Clear